Location: Lombard
(41.8800°N, 88.0080°W)
Time: 17:39:34
(UTC-06:00)

Vanguard 3 - Pass Details

Date: 12 December 2023
Orbit: 508 x 3239 km, 33.4° (Epoch: 23 February)

Event Time Altitude Azimuth Distance (km) Brightness Sun altitude
Rises 21:07:03 0° 257° (WSW) 6,955 12.4 -52.1°
Reaches altitude 10° 21:12:13 10° 254° (WSW) 5,677 11.8 -53.0°
Enters shadow 21:22:06 38° 237° (WSW) 3,206 10.1 -54.7°
